,,,PA_Meas_PMT16A,,PR_Meas_QMR101_102,,RH_Meas_QMH101,,SR_Meas_QMS101,,TA_Meas_QMH101,,GenWind,,GenWind,
date,time,status,PA,status,PR,status,RH,status,SR,status,TA,status,DirAvg,status,SpdAvg,
2012-04-23, 00:00:04,VALID,1004.83,VALID,0,VALID,94.4074,VALID,0,VALID,24.4822,VALID,3,VALID,0,
2012-04-23, 00:01:04,VALID,1004.82,VALID,0,VALID,94.4074,VALID,0,VALID,24.5017,VALID,3,VALID,0.353516,
2012-04-23, 00:02:04,VALID,1004.83,VALID,0,VALID,94.4608,VALID,0,VALID,24.5212,VALID,3,VALID,0.413281,
2012-04-23, 00:03:04,VALID,1004.8,VALID,0,VALID,94.4379,VALID,0,VALID,24.5193,VALID,3,VALID,0.394531,
2012-04-23, 00:04:04,VALID,1004.8,VALID,0,VALID,94.4684,VALID,0,VALID,24.5796,VALID,3,VALID,0.413672,
2012-04-23, 00:05:04,VALID,1004.82,VALID,0,VALID,94.4532,VALID,0,VALID,24.5582,VALID,3,VALID,0.584766,
2012-04-23, 00:06:04,VALID,1004.83,VALID,0,VALID,94.4532,VALID,0,VALID,24.5796,VALID,3,VALID,0.44375,
2012-04-23, 00:07:04,VALID,1004.82,VALID,0,VALID,94.415,VALID,0,VALID,24.5796,VALID,3,VALID,0.354297,
2012-04-23, 00:08:04,VALID,1004.83,VALID,0,VALID,94.3921,VALID,0,VALID,24.5582,VALID,3,VALID,0.458203,
2012-04-23, 00:09:04,VALID,1004.82,VALID,0,VALID,94.3845,VALID,0,VALID,24.5777,VALID,3,VALID,0.280469,
2012-04-23, 00:10:04,VALID,1004.82,VALID,0,VALID,94.3769,VALID,0,VALID,24.5972,VALID,3,VALID,0.262109,
2012-04-23, 00:11:04,VALID,1004.82,VALID,0,VALID,94.3921,VALID,0,VALID,24.6185,VALID,3,VALID,0.180859,
2012-04-23, 00:12:04,VALID,1004.84,VALID,0,VALID,94.3769,VALID,0.0815089,VALID,24.6185,VALID,3,VALID,0.00273437,
2012-04-23, 00:13:04,VALID,1004.8,VALID,0,VALID,94.3692,VALID,0,VALID,24.5972,VALID,3,VALID,0.376563,
2012-04-23, 00:14:04,VALID,1004.83,VALID,0,VALID,94.3845,VALID,0,VALID,24.638,VALID,3,VALID,0.365625,
2012-04-23, 00:15:04,VALID,1004.82,VALID,0,VALID,94.3616,VALID,0,VALID,24.6574,VALID,3,VALID,0.609375,
2012-04-23, 00:16:04,VALID,1004.84,VALID,0,VALID,94.3082,VALID,0,VALID,24.6361,VALID,4,VALID,0.870703,
2012-04-23, 00:17:04,VALID,1004.88,VALID,0,VALID,94.2777,VALID,0,VALID,24.6574,VALID,6,VALID,0.862891,
2012-04-23, 00:18:04,VALID,1004.9,VALID,0,VALID,94.2853,VALID,0.0815089,VALID,24.675,VALID,7,VALID,0.510547,
2012-04-23, 00:19:04,VALID,1004.91,VALID,0,VALID,94.2396,VALID,0,VALID,24.675,VALID,13,VALID,0.767969,
2012-04-23, 00:20:04,VALID,1004.88,VALID,0,VALID,94.0107,VALID,0,VALID,24.6166,VALID,25,VALID,1.48086,
2012-04-23, 00:21:05,VALID,1004.84,VALID,0,VALID,93.1791,VALID,0.0815089,VALID,24.5601,VALID,35,VALID,2.32773,
2012-04-23, 00:22:05,VALID,1004.81,VALID,0,VALID,92.34,VALID,0.0815089,VALID,24.599,VALID,8,VALID,2.01484,
2012-04-23, 00:23:05,VALID,1004.83,VALID,0,VALID,91.9738,VALID,0.0815089,VALID,24.675,VALID,350,VALID,0.926562,
2012-04-23, 00:24:05,VALID,1004.79,VALID,0,VALID,90.982,VALID,0,VALID,24.6945,VALID,16,VALID,2.48633,
2012-04-23, 00:25:05,VALID,1004.76,VALID,0,VALID,90.4938,VALID,0.0815089,VALID,24.7705,VALID,17,VALID,2.32773,
2012-04-23, 00:26:05,VALID,1004.76,VALID,0,VALID,90.1963,VALID,0,VALID,24.8308,VALID,15,VALID,1.51133,
2012-04-23, 00:27:05,VALID,1004.75,VALID,0,VALID,89.6699,VALID,0,VALID,24.8308,VALID,14,VALID,2.54648,
2012-04-23, 00:28:05,VALID,1004.71,VALID,0,VALID,89.6851,VALID,0,VALID,24.8522,VALID,14,VALID,3.27383,
2012-04-23, 00:29:05,VALID,1004.71,VALID,0,VALID,90.0742,VALID,0.0815089,VALID,24.8503,VALID,29,VALID,1.78047,
2012-04-23, 00:30:05,VALID,1004.66,VALID,0,VALID,90.2344,VALID,0.0815089,VALID,24.8503,VALID,20,VALID,1.48867,
2012-04-23, 00:31:05,VALID,1004.64,VALID,0,VALID,90.5853,VALID,0,VALID,24.7919,VALID,34,VALID,1.14336,
2012-04-23, 00:32:05,VALID,1004.61,VALID,0,VALID,90.9591,VALID,0.0815089,VALID,24.7529,VALID,19,VALID,1.01445,
2012-04-23, 00:33:05,VALID,1004.59,VALID,0.5,VALID,91.3253,VALID,0.0815089,VALID,24.714,VALID,6,VALID,1.31055,
2012-04-23, 00:34:05,VALID,1004.54,VALID,0.5,VALID,91.9051,VALID,0,VALID,24.6964,VALID,11,VALID,2.18398,
2012-04-23, 00:35:05,VALID,1004.58,VALID,0.5,VALID,92.3247,VALID,0,VALID,24.6361,VALID,7,VALID,1.07383,
2012-04-23, 00:36:05,VALID,1004.59,VALID,0,VALID,92.668,VALID,0.0815089,VALID,24.6361,VALID,12,VALID,0.880078,
2012-04-23, 00:37:05,VALID,1004.58,VALID,0.5,VALID,92.8892,VALID,0,VALID,24.5777,VALID,346,VALID,0.721094,
2012-04-23, 00:38:05,VALID,1004.56,VALID,0.5,VALID,93.0418,VALID,0,VALID,24.5406,VALID,348,VALID,1.02891,
2012-04-23, 00:39:05,VALID,1004.53,VALID,0.5,VALID,93.3012,VALID,0.0815089,VALID,24.5193,VALID,25,VALID,0.904688,
2012-04-23, 00:40:05,VALID,1004.49,VALID,1.5,VALID,93.4843,VALID,0.0815089,VALID,24.4804,VALID,29,VALID,0.601172,
2012-04-23, 00:41:05,VALID,1004.4,VALID,1,VALID,93.7132,VALID,0,VALID,24.4804,VALID,273,VALID,0.466797,
2012-04-23, 00:42:05,VALID,1004.32,VALID,0.5,VALID,93.9497,VALID,0.0815089,VALID,24.4609,VALID,282,VALID,0.684375,
2012-04-23, 00:43:05,VALID,1004.29,VALID,0.5,VALID,94.0794,VALID,0.0815089,VALID,24.4609,VALID,285,VALID,0.395312,
2012-04-23, 00:44:05,VALID,1004.25,VALID,0,VALID,94.2014,VALID,0.0815089,VALID,24.4804,VALID,324,VALID,0.585547,
2012-04-23, 00:45:05,VALID,1004.24,VALID,0.5,VALID,94.3006,VALID,0.0815089,VALID,24.4804,VALID,343,VALID,0.498828,
2012-04-23, 00:46:05,VALID,1004.2,VALID,0,VALID,94.3692,VALID,0.0815089,VALID,24.5035,VALID,343,VALID,0.580469,
2012-04-23, 00:47:05,VALID,1004.2,VALID,0.5,VALID,94.3921,VALID,0,VALID,24.4822,VALID,344,VALID,0.375391,
2012-04-23, 00:48:05,VALID,1004.21,VALID,0,VALID,94.4379,VALID,0,VALID,24.4628,VALID,345,VALID,0.771484,
2012-04-23, 00:49:05,VALID,1004.19,VALID,0,VALID,94.5142,VALID,0,VALID,24.4609,VALID,343,VALID,0.279687,
2012-04-23, 00:50:05,VALID,1004.18,VALID,0,VALID,94.5523,VALID,0,VALID,24.4414,VALID,343,VALID,0.163281,
2012-04-23, 00:51:05,VALID,1004.21,VALID,0.5,VALID,94.6286,VALID,0,VALID,24.4804,VALID,338,VALID,0,
2012-04-23, 00:52:05,VALID,1004.19,VALID,0,VALID,94.6439,VALID,0.0815089,VALID,24.5017,VALID,342,VALID,0.281641,
2012-04-23, 00:53:05,VALID,1004.21,VALID,0,VALID,94.6591,VALID,0,VALID,24.5017,VALID,345,VALID,0.705078,
2012-04-23, 00:54:05,VALID,1004.22,VALID,0,VALID,94.6973,VALID,0,VALID,24.4998,VALID,354,VALID,0.0992187,
2012-04-23, 00:55:05,VALID,1004.18,VALID,0.5,VALID,94.7202,VALID,0.0815089,VALID,24.5212,VALID,354,VALID,0,
2012-04-23, 00:56:05,VALID,1004.17,VALID,0,VALID,94.7278,VALID,0,VALID,24.5212,VALID,355,VALID,0.117188,
2012-04-23, 00:57:05,VALID,1004.16,VALID,0,VALID,94.7583,VALID,0,VALID,24.4998,VALID,18,VALID,0.766797,
2012-04-23, 00:58:05,VALID,1004.12,VALID,0,VALID,94.7583,VALID,0,VALID,24.5017,VALID,18,VALID,0.103906,
2012-04-23, 00:59:05,VALID,1004.07,VALID,0,VALID,94.766,VALID,0,VALID,24.4804,VALID,18,VALID,0,
2012-04-23, 01:00:05,VALID,1004.06,VALID,0,VALID,94.7812,VALID,0,VALID,24.5017,VALID,18,VALID,0,
2012-04-23, 01:01:05,VALID,1004,VALID,0,VALID,94.8041,VALID,0,VALID,24.5212,VALID,18,VALID,0,
2012-04-23, 01:02:05,VALID,1003.99,VALID,0,VALID,94.8041,VALID,0,VALID,24.5017,VALID,18,VALID,0,
2012-04-23, 01:03:05,VALID,1003.91,VALID,0.5,VALID,94.8194,VALID,0.0815089,VALID,24.5212,VALID,18,VALID,0,
2012-04-23, 01:04:05,VALID,1003.88,VALID,0,VALID,94.8499,VALID,0.0815089,VALID,24.4804,VALID,157,VALID,0,
2012-04-23, 01:05:05,VALID,1003.81,VALID,0,VALID,94.8499,VALID,0.0815089,VALID,24.4804,VALID,173,VALID,0.730859,
2012-04-23, 01:06:05,VALID,1003.76,VALID,0,VALID,94.8346,VALID,0.0815089,VALID,24.5017,VALID,195,VALID,1.03984,
2012-04-23, 01:07:05,VALID,1003.71,VALID,0,VALID,94.8422,VALID,0.0815089,VALID,24.4414,VALID,195,VALID,0.427344,
2012-04-23, 01:08:05,VALID,1003.66,VALID,0,VALID,94.8499,VALID,0.0815089,VALID,24.4414,VALID,179,VALID,0.632422,
2012-04-23, 01:09:05,VALID,1003.63,VALID,0,VALID,94.8575,VALID,0,VALID,24.422,VALID,160,VALID,0.769141,
2012-04-23, 01:10:05,VALID,1003.61,VALID,0,VALID,94.8422,VALID,0,VALID,24.383,VALID,149,VALID,0.737891,
2012-04-23, 01:11:05,VALID,1003.62,VALID,0,VALID,94.8651,VALID,0,VALID,24.3849,VALID,147,VALID,0.374609,
2012-04-23, 01:12:05,VALID,1003.59,VALID,0,VALID,94.8728,VALID,0,VALID,24.3441,VALID,141,VALID,0.634766,
2012-04-23, 01:13:05,VALID,1003.59,VALID,0,VALID,94.8728,VALID,0,VALID,24.3849,VALID,139,VALID,0,
2012-04-23, 01:14:05,VALID,1003.56,VALID,0,VALID,94.9033,VALID,0.0815089,VALID,24.3441,VALID,139,VALID,0,
2012-04-23, 01:15:05,VALID,1003.55,VALID,0,VALID,94.888,VALID,0,VALID,24.3265,VALID,139,VALID,0,
2012-04-23, 01:16:05,VALID,1003.51,VALID,0,VALID,94.9185,VALID,0,VALID,24.3052,VALID,139,VALID,0,
2012-04-23, 01:17:05,VALID,1003.44,VALID,0,VALID,94.9262,VALID,0,VALID,24.3265,VALID,139,VALID,0,
2012-04-23, 01:18:05,VALID,1003.38,VALID,0,VALID,94.949,VALID,0.0815089,VALID,24.3052,VALID,139,VALID,0,
2012-04-23, 01:19:05,VALID,1003.33,VALID,0,VALID,94.949,VALID,0.0815089,VALID,24.3052,VALID,139,VALID,0,
2012-04-23, 01:20:05,VALID,1003.29,VALID,0,VALID,94.9643,VALID,0.0815089,VALID,24.2857,VALID,139,VALID,0,
2012-04-23, 01:21:05,VALID,1003.25,VALID,0,VALID,94.9948,VALID,0,VALID,24.2857,VALID,139,VALID,0,
2012-04-23, 01:22:05,VALID,1003.23,VALID,0,VALID,94.9796,VALID,0,VALID,24.2662,VALID,45,VALID,0,
2012-04-23, 01:23:05,VALID,1003.25,VALID,0,VALID,94.9872,VALID,0,VALID,24.2468,VALID,45,VALID,0,
2012-04-23, 01:24:05,VALID,1003.23,VALID,0,VALID,94.9872,VALID,0,VALID,24.2681,VALID,45,VALID,0,
2012-04-23, 01:25:05,VALID,1003.22,VALID,0,VALID,95.0024,VALID,0,VALID,24.2273,VALID,45,VALID,0,
2012-04-23, 01:26:05,VALID,1003.21,VALID,0,VALID,94.9872,VALID,0,VALID,24.2078,VALID,45,VALID,0,
2012-04-23, 01:27:05,VALID,1003.21,VALID,0,VALID,95.0024,VALID,0.0815089,VALID,24.1671,VALID,45,VALID,0,
2012-04-23, 01:28:05,VALID,1003.19,VALID,0,VALID,95.0177,VALID,0.0815089,VALID,24.1884,VALID,45,VALID,0,
2012-04-23, 01:29:05,VALID,1003.19,VALID,0,VALID,95.033,VALID,0,VALID,24.1689,VALID,43,VALID,0,
2012-04-23, 01:30:05,VALID,1003.19,VALID,0,VALID,95.033,VALID,0,VALID,24.1902,VALID,39,VALID,0,
2012-04-23, 01:31:05,VALID,1003.19,VALID,0,VALID,95.0558,VALID,0.0815089,VALID,24.1707,VALID,39,VALID,0,
2012-04-23, 01:32:05,VALID,1003.17,VALID,0,VALID,95.0635,VALID,0,VALID,24.13,VALID,39,VALID,0,
2012-04-23, 01:33:05,VALID,1003.19,VALID,0,VALID,95.0635,VALID,0,VALID,24.13,VALID,39,VALID,0,
2012-04-23, 01:34:05,VALID,1003.12,VALID,0,VALID,95.0482,VALID,0.0815089,VALID,24.1105,VALID,39,VALID,0,
2012-04-23, 01:35:05,VALID,1003.12,VALID,0,VALID,95.0635,VALID,0,VALID,24.091,VALID,39,VALID,0,
2012-04-23, 01:36:05,VALID,1003.13,VALID,0,VALID,95.0787,VALID,0,VALID,24.1123,VALID,39,VALID,0,
2012-04-23, 01:37:05,VALID,1003.11,VALID,0,VALID,95.0635,VALID,0,VALID,24.0716,VALID,39,VALID,0,
2012-04-23, 01:38:05,VALID,1003.11,VALID,0,VALID,95.0864,VALID,0.0815089,VALID,24.0716,VALID,39,VALID,0,
2012-04-23, 01:39:05,VALID,1003.12,VALID,0,VALID,95.1093,VALID,0,VALID,24.0716,VALID,39,VALID,0,
2012-04-23, 01:40:05,VALID,1003.1,VALID,0,VALID,95.1169,VALID,0,VALID,24.0503,VALID,39,VALID,0,
2012-04-23, 01:41:05,VALID,1003.08,VALID,0,VALID,95.1321,VALID,0,VALID,24.0503,VALID,39,VALID,0,
2012-04-23, 01:42:05,VALID,1003.04,VALID,0,VALID,95.1474,VALID,0,VALID,24.091,VALID,39,VALID,0,
2012-04-23, 01:43:05,VALID,1003.03,VALID,0,VALID,95.1398,VALID,0,VALID,24.0716,VALID,39,VALID,0,
2012-04-23, 01:44:05,VALID,1003.03,VALID,0,VALID,95.1398,VALID,0,VALID,24.0716,VALID,39,VALID,0,
2012-04-23, 01:45:05,VALID,1003.04,VALID,0,VALID,95.155,VALID,0,VALID,24.0734,VALID,39,VALID,0,
2012-04-23, 01:46:05,VALID,1003.03,VALID,0,VALID,95.1474,VALID,0,VALID,24.0521,VALID,39,VALID,0,
2012-04-23, 01:47:05,VALID,1003.04,VALID,0,VALID,95.1703,VALID,0,VALID,24.0734,VALID,39,VALID,0,
2012-04-23, 01:48:05,VALID,1003.02,VALID,0,VALID,95.1779,VALID,0,VALID,24.0734,VALID,49,VALID,0,
2012-04-23, 01:49:05,VALID,1003.05,VALID,0,VALID,95.1703,VALID,0,VALID,24.0521,VALID,50,VALID,0,
2012-04-23, 01:50:05,VALID,1003.02,VALID,0,VALID,95.1932,VALID,0,VALID,24.0734,VALID,94,VALID,0,
2012-04-23, 01:51:05,VALID,1003.01,VALID,0,VALID,95.1932,VALID,0,VALID,24.0929,VALID,95,VALID,0,
2012-04-23, 01:52:05,VALID,1003.03,VALID,0,VALID,95.1855,VALID,0,VALID,24.0521,VALID,95,VALID,0,
2012-04-23, 01:53:05,VALID,1003.01,VALID,0,VALID,95.1703,VALID,0,VALID,24.0326,VALID,95,VALID,0,
2012-04-23, 01:54:05,VALID,1003.01,VALID,0,VALID,95.1932,VALID,0.0815089,VALID,24.0539,VALID,95,VALID,0,
2012-04-23, 01:55:05,VALID,1003.03,VALID,0,VALID,95.1932,VALID,0,VALID,24.0326,VALID,95,VALID,0,
2012-04-23, 01:56:05,VALID,1003.02,VALID,0,VALID,95.1932,VALID,0,VALID,24.0326,VALID,95,VALID,0,
2012-04-23, 01:57:05,VALID,1003.03,VALID,0,VALID,95.2237,VALID,0,VALID,24.0539,VALID,95,VALID,0,
2012-04-23, 01:58:05,VALID,1003.06,VALID,0,VALID,95.2237,VALID,0.0815089,VALID,24.015,VALID,95,VALID,0,
2012-04-23, 01:59:05,VALID,1003.04,VALID,0,VALID,95.2084,VALID,0,VALID,24.015,VALID,95,VALID,0,
2012-04-23, 02:00:05,VALID,1003.05,VALID,0,VALID,95.2008,VALID,0.0815089,VALID,23.953,VALID,95,VALID,0,
2012-04-23, 02:01:05,VALID,1003.03,VALID,0,VALID,95.2008,VALID,0,VALID,23.9548,VALID,95,VALID,0,
2012-04-23, 02:02:05,VALID,1003.01,VALID,0,VALID,95.2008,VALID,0.0815089,VALID,23.9548,VALID,95,VALID,0,
2012-04-23, 02:03:05,VALID,1003,VALID,0,VALID,95.2237,VALID,0.0815089,VALID,23.9548,VALID,95,VALID,0,
2012-04-23, 02:04:05,VALID,1003.02,VALID,0,VALID,95.2084,VALID,0,VALID,23.9159,VALID,95,VALID,0,
2012-04-23, 02:05:05,VALID,1003.04,VALID,0,VALID,95.2084,VALID,0,VALID,23.9353,VALID,95,VALID,0,
2012-04-23, 02:06:05,VALID,1003.01,VALID,0,VALID,95.2084,VALID,0,VALID,23.9159,VALID,95,VALID,0,
2012-04-23, 02:07:05,VALID,1003,VALID,0,VALID,95.2313,VALID,0,VALID,23.9159,VALID,95,VALID,0,
2012-04-23, 02:08:05,VALID,1002.94,VALID,0,VALID,95.2313,VALID,0,VALID,23.8964,VALID,95,VALID,0,
2012-04-23, 02:09:05,VALID,1002.93,VALID,0,VALID,95.2313,VALID,0.0815089,VALID,23.8769,VALID,95,VALID,0,
2012-04-23, 02:10:05,VALID,1002.89,VALID,0,VALID,95.2389,VALID,0.0815089,VALID,23.8769,VALID,95,VALID,0,
2012-04-23, 02:11:05,VALID,1002.85,VALID,0,VALID,95.2313,VALID,0,VALID,23.8787,VALID,95,VALID,0,
2012-04-23, 02:12:05,VALID,1002.83,VALID,0,VALID,95.2466,VALID,0,VALID,23.8362,VALID,95,VALID,0,
2012-04-23, 02:13:05,VALID,1002.81,VALID,0,VALID,95.2313,VALID,0.0815089,VALID,23.8769,VALID,95,VALID,0,
2012-04-23, 02:14:05,VALID,1002.83,VALID,0,VALID,95.2618,VALID,0.0815089,VALID,23.8787,VALID,95,VALID,0,
2012-04-23, 02:15:05,VALID,1002.79,VALID,0,VALID,95.2466,VALID,0,VALID,23.8593,VALID,95,VALID,0,
2012-04-23, 02:16:05,VALID,1002.8,VALID,0,VALID,95.2389,VALID,0.0815089,VALID,23.8185,VALID,94,VALID,0,
2012-04-23, 02:17:05,VALID,1002.76,VALID,0,VALID,95.2542,VALID,0,VALID,23.8398,VALID,94,VALID,0,
2012-04-23, 02:18:05,VALID,1002.76,VALID,0,VALID,95.2618,VALID,0,VALID,23.8009,VALID,94,VALID,0,
2012-04-23, 02:19:05,VALID,1002.72,VALID,0,VALID,95.2618,VALID,0.0815089,VALID,23.8009,VALID,94,VALID,0,
2012-04-23, 02:20:05,VALID,1002.69,VALID,0,VALID,95.2695,VALID,0.0815089,VALID,23.7814,VALID,94,VALID,0,
2012-04-23, 02:21:05,VALID,1002.69,VALID,0,VALID,95.2695,VALID,0.0815089,VALID,23.7796,VALID,94,VALID,0,
2012-04-23, 02:22:05,VALID,1002.66,VALID,0,VALID,95.2847,VALID,0,VALID,23.7601,VALID,94,VALID,0,
2012-04-23, 02:23:05,VALID,1002.64,VALID,0,VALID,95.2695,VALID,0,VALID,23.7407,VALID,94,VALID,0,
2012-04-23, 02:24:05,VALID,1002.61,VALID,0,VALID,95.2923,VALID,0.0815089,VALID,23.7814,VALID,94,VALID,0,
2012-04-23, 02:25:05,VALID,1002.6,VALID,0,VALID,95.2847,VALID,0,VALID,23.7796,VALID,94,VALID,0,
2012-04-23, 02:26:05,VALID,1002.61,VALID,0,VALID,95.3152,VALID,0.0815089,VALID,23.838,VALID,94,VALID,0,
2012-04-23, 02:27:05,VALID,1002.59,VALID,0,VALID,95.3076,VALID,0,VALID,23.8575,VALID,94,VALID,0,
2012-04-23, 02:28:05,VALID,1002.61,VALID,0,VALID,95.3534,VALID,0,VALID,23.8769,VALID,94,VALID,0,
2012-04-23, 02:29:05,VALID,1002.61,VALID,0,VALID,95.3305,VALID,0,VALID,23.8575,VALID,94,VALID,0,
2012-04-23, 02:30:05,VALID,1002.63,VALID,0,VALID,95.3457,VALID,0,VALID,23.8769,VALID,94,VALID,0,
2012-04-23, 02:31:05,VALID,1002.64,VALID,0,VALID,95.3076,VALID,0,VALID,23.838,VALID,94,VALID,0,
2012-04-23, 02:32:05,VALID,1002.61,VALID,0,VALID,95.3076,VALID,0,VALID,23.7991,VALID,94,VALID,0,
2012-04-23, 02:33:05,VALID,1002.62,VALID,0,VALID,95.3,VALID,0.0815089,VALID,23.8185,VALID,94,VALID,0,
2012-04-23, 02:34:05,VALID,1002.61,VALID,0,VALID,95.3229,VALID,0.0815089,VALID,23.838,VALID,94,VALID,0,
2012-04-23, 02:35:05,VALID,1002.63,VALID,0,VALID,95.3305,VALID,0.0815089,VALID,23.8575,VALID,94,VALID,0,
2012-04-23, 02:36:05,VALID,1002.65,VALID,0,VALID,95.3305,VALID,0,VALID,23.8575,VALID,81,VALID,0,
2012-04-23, 02:37:05,VALID,1002.68,VALID,0,VALID,95.3686,VALID,0.0815089,VALID,23.8769,VALID,79,VALID,0,
2012-04-23, 02:38:05,VALID,1002.68,VALID,0,VALID,95.3229,VALID,0,VALID,23.8575,VALID,79,VALID,0,
2012-04-23, 02:39:05,VALID,1002.72,VALID,0,VALID,95.3381,VALID,0,VALID,23.8593,VALID,75,VALID,0,
2012-04-23, 02:40:05,VALID,1002.73,VALID,0,VALID,95.3457,VALID,0.0815089,VALID,23.8185,VALID,74,VALID,0,
2012-04-23, 02:41:05,VALID,1002.73,VALID,0,VALID,95.361,VALID,0.0815089,VALID,23.838,VALID,74,VALID,0,
2012-04-23, 02:42:05,VALID,1002.76,VALID,0,VALID,95.3686,VALID,0,VALID,23.8185,VALID,74,VALID,0,
2012-04-23, 02:43:05,VALID,1002.74,VALID,0,VALID,95.361,VALID,0.0815089,VALID,23.838,VALID,74,VALID,0,
2012-04-23, 02:44:05,VALID,1002.76,VALID,0,VALID,95.3686,VALID,0.0815089,VALID,23.8593,VALID,74,VALID,0,
2012-04-23, 02:45:05,VALID,1002.78,VALID,0,VALID,95.3686,VALID,0,VALID,23.8575,VALID,74,VALID,0,
2012-04-23, 02:46:05,VALID,1002.78,VALID,0,VALID,95.3839,VALID,0.0815089,VALID,23.8769,VALID,74,VALID,0,
2012-04-23, 02:47:05,VALID,1002.8,VALID,0,VALID,95.3686,VALID,0,VALID,23.8964,VALID,74,VALID,0,
2012-04-23, 02:48:05,VALID,1002.8,VALID,0,VALID,95.3763,VALID,0,VALID,23.8964,VALID,41,VALID,0,
2012-04-23, 02:49:05,VALID,1002.8,VALID,0,VALID,95.3686,VALID,0,VALID,23.8751,VALID,14,VALID,0,
2012-04-23, 02:50:05,VALID,1002.81,VALID,0,VALID,95.3534,VALID,0,VALID,23.838,VALID,10,VALID,0,
2012-04-23, 02:51:05,VALID,1002.8,VALID,0,VALID,95.3763,VALID,0,VALID,23.838,VALID,10,VALID,0,
2012-04-23, 02:52:05,VALID,1002.78,VALID,0,VALID,95.3686,VALID,0.0815089,VALID,23.8575,VALID,10,VALID,0,
2012-04-23, 02:53:05,VALID,1002.76,VALID,0,VALID,95.3991,VALID,0.0815089,VALID,23.8362,VALID,10,VALID,0,
2012-04-23, 02:54:05,VALID,1002.79,VALID,0,VALID,95.3915,VALID,0,VALID,23.8556,VALID,10,VALID,0,
2012-04-23, 02:55:05,VALID,1002.8,VALID,0,VALID,95.3763,VALID,0.0815089,VALID,23.8964,VALID,10,VALID,0,
2012-04-23, 02:56:05,VALID,1002.78,VALID,0,VALID,95.3915,VALID,0,VALID,23.8964,VALID,10,VALID,0,
2012-04-23, 02:57:05,VALID,1002.79,VALID,0,VALID,95.3991,VALID,0,VALID,23.8964,VALID,10,VALID,0,
2012-04-23, 02:58:05,VALID,1002.8,VALID,0,VALID,95.3991,VALID,0,VALID,23.9177,VALID,10,VALID,0,
2012-04-23, 02:59:05,VALID,1002.8,VALID,0,VALID,95.3915,VALID,0,VALID,23.9159,VALID,10,VALID,0,
2012-04-23, 03:00:05,VALID,1002.79,VALID,0,VALID,95.3915,VALID,0,VALID,23.9371,VALID,10,VALID,0,
2012-04-23, 03:01:04,VALID,1002.82,VALID,0,VALID,95.3991,VALID,0,VALID,23.9159,VALID,10,VALID,0,
2012-04-23, 03:02:04,VALID,1002.81,VALID,0,VALID,95.3839,VALID,0,VALID,23.9353,VALID,10,VALID,0,
2012-04-23, 03:03:04,VALID,1002.83,VALID,0,VALID,95.4068,VALID,0,VALID,23.9548,VALID,10,VALID,0,
2012-04-23, 03:04:04,VALID,1002.84,VALID,0,VALID,95.422,VALID,0,VALID,23.9937,VALID,10,VALID,0,
2012-04-23, 03:05:04,VALID,1002.86,VALID,0,VALID,95.4297,VALID,0,VALID,24.0326,VALID,10,VALID,0,
2012-04-23, 03:06:04,VALID,1002.83,VALID,0,VALID,95.4068,VALID,0,VALID,24.0326,VALID,10,VALID,0,
2012-04-23, 03:07:04,VALID,1002.84,VALID,0,VALID,95.4144,VALID,0,VALID,24.0308,VALID,9,VALID,0,
2012-04-23, 03:08:04,VALID,1002.86,VALID,0,VALID,95.4068,VALID,0,VALID,24.0521,VALID,8,VALID,0,
2012-04-23, 03:09:04,VALID,1002.87,VALID,0,VALID,95.4144,VALID,0,VALID,24.0716,VALID,8,VALID,0,
2012-04-23, 03:10:04,VALID,1002.85,VALID,0,VALID,95.4144,VALID,0,VALID,24.0929,VALID,8,VALID,0,
2012-04-23, 03:11:04,VALID,1002.82,VALID,0,VALID,95.3991,VALID,0,VALID,24.0521,VALID,8,VALID,0,
2012-04-23, 03:12:04,VALID,1002.81,VALID,0,VALID,95.3915,VALID,0,VALID,24.0521,VALID,8,VALID,0,
2012-04-23, 03:13:04,VALID,1002.8,VALID,0,VALID,95.4068,VALID,0,VALID,24.0521,VALID,8,VALID,0,
2012-04-23, 03:14:04,VALID,1002.79,VALID,0,VALID,95.3991,VALID,0,VALID,24.0734,VALID,8,VALID,0,
2012-04-23, 03:15:04,VALID,1002.78,VALID,0,VALID,95.4144,VALID,0,VALID,24.0539,VALID,8,VALID,0,
2012-04-23, 03:16:04,VALID,1002.79,VALID,0,VALID,95.3915,VALID,0,VALID,24.0326,VALID,8,VALID,0,
2012-04-23, 03:17:04,VALID,1002.81,VALID,0,VALID,95.3991,VALID,0,VALID,24.0132,VALID,8,VALID,0,
2012-04-23, 03:18:04,VALID,1002.78,VALID,0,VALID,95.4068,VALID,0,VALID,23.9937,VALID,8,VALID,0,
2012-04-23, 03:19:04,VALID,1002.82,VALID,0,VALID,95.4144,VALID,0,VALID,24.0539,VALID,8,VALID,0,
2012-04-23, 03:20:04,VALID,1002.86,VALID,0,VALID,95.422,VALID,0,VALID,24.0557,VALID,8,VALID,0,
2012-04-23, 03:21:04,VALID,1002.86,VALID,0,VALID,95.4144,VALID,0,VALID,24.0132,VALID,8,VALID,0,
2012-04-23, 03:22:04,VALID,1002.9,VALID,0,VALID,95.3763,VALID,0,VALID,24.0132,VALID,8,VALID,0,
2012-04-23, 03:23:04,VALID,1002.89,VALID,0,VALID,95.3991,VALID,0.0815089,VALID,24.0326,VALID,8,VALID,0,
2012-04-23, 03:24:04,VALID,1002.91,VALID,0,VALID,95.4144,VALID,0,VALID,24.0539,VALID,8,VALID,0,
2012-04-23, 03:25:04,VALID,1002.91,VALID,0,VALID,95.422,VALID,0,VALID,24.0326,VALID,8,VALID,0,
2012-04-23, 03:26:04,VALID,1002.94,VALID,0,VALID,95.4297,VALID,0,VALID,24.0716,VALID,8,VALID,0,
2012-04-23, 03:27:04,VALID,1002.94,VALID,0,VALID,95.4068,VALID,0,VALID,24.091,VALID,8,VALID,0,
2012-04-23, 03:28:04,VALID,1002.93,VALID,0,VALID,95.4144,VALID,0,VALID,24.0697,VALID,8,VALID,0,
2012-04-23, 03:29:04,VALID,1002.95,VALID,0,VALID,95.422,VALID,0,VALID,24.1318,VALID,8,VALID,0,
2012-04-23, 03:30:04,VALID,1002.96,VALID,0,VALID,95.4373,VALID,0,VALID,24.1318,VALID,8,VALID,0,
2012-04-23, 03:31:04,VALID,1002.95,VALID,0,VALID,95.422,VALID,0,VALID,24.13,VALID,8,VALID,0,
2012-04-23, 03:32:04,VALID,1002.97,VALID,0,VALID,95.3915,VALID,0,VALID,24.13,VALID,8,VALID,0,
2012-04-23, 03:33:04,VALID,1002.97,VALID,0,VALID,95.4144,VALID,0,VALID,24.1494,VALID,8,VALID,0,
2012-04-23, 03:34:04,VALID,1002.97,VALID,0,VALID,95.3915,VALID,0,VALID,24.1494,VALID,8,VALID,0,
2012-04-23, 03:35:04,VALID,1002.96,VALID,0,VALID,95.4068,VALID,0,VALID,24.1318,VALID,8,VALID,0,
2012-04-23, 03:36:04,VALID,1002.95,VALID,0,VALID,95.4144,VALID,0,VALID,24.13,VALID,8,VALID,0,
2012-04-23, 03:37:04,VALID,1002.97,VALID,0,VALID,95.4144,VALID,0,VALID,24.13,VALID,8,VALID,0,
2012-04-23, 03:38:04,VALID,1002.95,VALID,0,VALID,95.422,VALID,0,VALID,24.1513,VALID,8,VALID,0,
2012-04-23, 03:39:04,VALID,1002.93,VALID,0,VALID,95.4144,VALID,0,VALID,24.1494,VALID,8,VALID,0,
2012-04-23, 03:40:04,VALID,1002.94,VALID,0,VALID,95.4144,VALID,0,VALID,24.1494,VALID,8,VALID,0,
2012-04-23, 03:41:04,VALID,1002.91,VALID,0,VALID,95.4144,VALID,0,VALID,24.13,VALID,8,VALID,0,
2012-04-23, 03:42:04,VALID,1002.91,VALID,0,VALID,95.4373,VALID,0,VALID,24.1707,VALID,8,VALID,0,
2012-04-23, 03:43:04,VALID,1002.93,VALID,0,VALID,95.422,VALID,0,VALID,24.1689,VALID,8,VALID,0,
2012-04-23, 03:44:04,VALID,1002.92,VALID,0,VALID,95.4068,VALID,0,VALID,24.1494,VALID,8,VALID,0,
2012-04-23, 03:45:04,VALID,1002.9,VALID,0,VALID,95.422,VALID,0,VALID,24.1494,VALID,8,VALID,0,
2012-04-23, 03:46:04,VALID,1002.91,VALID,0,VALID,95.3915,VALID,0,VALID,24.1689,VALID,8,VALID,0,
2012-04-23, 03:47:04,VALID,1002.89,VALID,0,VALID,95.422,VALID,0,VALID,24.1902,VALID,8,VALID,0,
2012-04-23, 03:48:04,VALID,1002.92,VALID,0,VALID,95.3991,VALID,0,VALID,24.1689,VALID,8,VALID,0,
2012-04-23, 03:49:04,VALID,1002.91,VALID,0,VALID,95.4144,VALID,0,VALID,24.1902,VALID,8,VALID,0,
2012-04-23, 03:50:04,VALID,1002.94,VALID,0,VALID,95.3991,VALID,0,VALID,24.1689,VALID,8,VALID,0,
2012-04-23, 03:51:04,VALID,1002.95,VALID,0,VALID,95.422,VALID,0,VALID,24.1494,VALID,8,VALID,0,
2012-04-23, 03:52:04,VALID,1003,VALID,0,VALID,95.3839,VALID,0.0815089,VALID,24.1513,VALID,8,VALID,0,
2012-04-23, 03:53:04,VALID,1003,VALID,0,VALID,95.4068,VALID,0,VALID,24.1318,VALID,8,VALID,0,